| time (UTC) | temp C | wind direction | speed KPH | gust KPH | rain 1hr cm | rain 24hr cm | rain mn cm | humidity % | barometer mb |
| 20260506051001 | 13 | 0 | 0.0 | 0.0 | 0.15 | 3.17 | 2.21 | 92 | 1007.5 |
| 20260506044000 | 13 | 0 | 0.0 | 0.0 | 0.18 | 3.43 | 2.18 | 93 | 1007.6 |
| 20260506043000 | 13 | 0 | 0.0 | 0.0 | 0.18 | 3.58 | 2.18 | 92 | 1007.7 |
| 20260506042000 | 13 | 0 | 0.0 | 0.0 | 0.18 | 3.76 | 2.18 | 92 | 1007.9 |
| 20260506041001 | 13 | 0 | 0.0 | 0.0 | 0.05 | 3.73 | 2.03 | 91 | 1008.5 |
| 20260506040000 | 13 | 0 | 0.0 | 0.0 | 0.03 | 4.04 | 2.03 | 90 | 1008.5 |
| 20260506035000 | 13 | 0 | 0.0 | 0.0 | 0.03 | 4.11 | 2.01 | 90 | 1008.3 |
| 20260506034001 | 13 | 351 | 0.0 | 1.6 | 0.05 | 4.19 | 2.01 | 90 | 1008.1 |
| 20260506033000 | 13 | 0 | 1.6 | 0.0 | 0.05 | 4.27 | 2.01 | 90 | 1008.3 |
| 20260506031000 | 13 | 0 | 0.0 | 0.0 | 0.08 | 4.47 | 2.01 | 91 | 1008.3 |
| 20260506030001 | 13 | 0 | 0.0 | 0.0 | 0.15 | 4.52 | 2.01 | 92 | 1008.4 |
| 20260506025000 | 13 | 0 | 0.0 | 0.0 | 0.23 | 4.55 | 1.98 | 92 | 1008.9 |
| 20260506024000 | 13 | 0 | 0.0 | 0.0 | 0.36 | 4.55 | 1.96 | 92 | 1009.2 |
| 20260506023000 | 13 | 0 | 0.0 | 0.0 | 0.74 | 4.60 | 1.96 | 92 | 1009.2 |
| 20260506022001 | 13 | 0 | 0.0 | 0.0 | 1.19 | 4.62 | 1.93 | 92 | 1009.3 |
| 20260506021000 | 13 | 0 | 0.0 | 0.0 | 1.30 | 4.65 | 1.93 | 91 | 1009.3 |
| 20260506020001 | 13 | 0 | 0.0 | 0.0 | 1.27 | 4.57 | 1.83 | 91 | 1009.4 |
| 20260506015002 | 13 | 0 | 0.0 | 0.0 | 1.19 | 4.52 | 1.75 | 91 | 1009.9 |
| 20260506014000 | 14 | 0 | 0.0 | 0.0 | 1.09 | 4.39 | 1.57 | 90 | 1010.2 |
| 20260506013000 | 14 | 0 | 0.0 | 0.0 | 0.76 | 4.09 | 1.22 | 92 | 1010.3 |
| 20260506012000 | 15 | 259 | 0.0 | 3.2 | 0.28 | 3.61 | 0.71 | 92 | 1009.7 |
| 20260506005001 | 14 | 0 | 0.0 | 0.0 | 0.15 | 3.48 | 0.51 | 94 | 1009.7 |
| 20260506004002 | 14 | 0 | 0.0 | 0.0 | 0.10 | 3.43 | 0.48 | 93 | 1009.7 |
| 20260506003000 | 14 | 0 | 0.0 | 0.0 | 0.08 | 3.43 | 0.46 | 93 | 1009.8 |
| 20260506001959 | 14 | 0 | 0.0 | 0.0 | 0.05 | 3.40 | 0.43 | 93 | 1009.6 |
| 20260506001000 | 14 | 0 | 0.0 | 0.0 | 0.00 | 3.33 | 0.38 | 93 | 1009.7 |
| 20260506000000 | 15 | 0 | 0.0 | 0.0 | 0.00 | 3.33 | 0.38 | 92 | 1009.9 |
| 20260505235005 | 15 | 0 | 0.0 | 0.0 | 0.00 | 3.33 | 0.38 | 92 | 1010.0 |
| 20260505234001 | 15 | 0 | 0.0 | 0.0 | 0.00 | 3.33 | 0.38 | 92 | 1010.5 |
| 20260505233002 | 15 | 0 | 0.0 | 0.0 | 0.03 | 3.33 | 0.38 | 92 | 1010.5 |
| 20260505232001 | 15 | 0 | 0.0 | 0.0 | 0.36 | 3.33 | 0.38 | 91 | 1010.8 |
| 20260505230000 | 15 | 0 | 0.0 | 0.0 | 0.38 | 3.33 | 0.38 | 92 | 1010.9 |
| 20260505224000 | 15 | 0 | 0.0 | 0.0 | 0.38 | 3.33 | 0.38 | 91 | 1011.1 |
| 20260505223001 | 15 | 0 | 0.0 | 0.0 | 0.36 | 3.33 | 0.36 | 89 | 1011.1 |
| 20260505221000 | 15 | 352 | 0.0 | 4.8 | 0.00 | 2.97 | 0.00 | 88 | 1011.3 |
| 20260505220005 | 15 | 0 | 0.0 | 0.0 | 0.00 | 2.97 | 0.00 | 87 | 1011.1 |
| 20260505215001 | 15 | 0 | 0.0 | 0.0 | 0.00 | 2.97 | 2.97 | 88 | 1011.3 |
| 20260505212014 | 15 | 0 | 0.0 | 0.0 | 0.00 | 2.97 | 2.97 | 88 | 1011.5 |
| 20260505211000 | 15 | 0 | 0.0 | 0.0 | 0.00 | 2.97 | 2.97 | 88 | 1011.6 |
| 20260505210000 | 15 | 0 | 0.0 | 0.0 | 0.00 | 2.97 | 2.97 | 88 | 1011.8 |
| 20260505205000 | 15 | 0 | 0.0 | 0.0 | 0.00 | 2.97 | 2.97 | 87 | 1011.8 |
| 20260505204002 | 16 | 0 | 0.0 | 0.0 | 0.00 | 2.97 | 2.97 | 87 | 1011.9 |
| 20260505203000 | 16 | 0 | 0.0 | 0.0 | 0.00 | 2.97 | 2.97 | 87 | 1011.9 |
| 20260505201005 | 16 | 0 | 0.0 | 0.0 | 0.00 | 2.97 | 2.97 | 86 | 1011.8 |
| 20260505200000 | 16 | 67 | 0.0 | 3.2 | 0.00 | 2.97 | 2.97 | 87 | 1011.9 |
| 20260505194009 | 16 | 0 | 0.0 | 0.0 | 0.00 | 2.97 | 2.97 | 86 | 1011.9 |
| 20260505193001 | 16 | 0 | 0.0 | 0.0 | 0.00 | 2.97 | 2.97 | 85 | 1011.7 |
| 20260505191005 | 17 | 236 | 0.0 | 1.6 | 0.00 | 2.97 | 2.97 | 85 | 1011.6 |
| 20260505190001 | 17 | 0 | 0.0 | 0.0 | 0.00 | 2.97 | 2.97 | 84 | 1011.5 |
| 20260505185009 | 17 | 241 | 0.0 | 1.6 | 0.00 | 2.97 | 2.97 | 84 | 1011.5 |
| 20260505184000 | 17 | 224 | 0.0 | 6.4 | 0.00 | 2.97 | 2.97 | 84 | 1011.5 |
| 20260505182000 | 17 | 238 | 0.0 | 9.7 | 0.00 | 2.97 | 2.97 | 84 | 1011.5 |
| 20260505181003 | 17 | 228 | 0.0 | 1.6 | 0.00 | 2.97 | 2.97 | 84 | 1011.6 |
| 20260505175001 | 17 | 218 | 1.6 | 4.8 | 0.00 | 2.97 | 2.97 | 84 | 1011.5 |
| 20260505174001 | 17 | 233 | 0.0 | 4.8 | 0.00 | 2.97 | 2.97 | 84 | 1011.4 |
| 20260505173001 | 17 | 229 | 1.6 | 6.4 | 0.00 | 2.97 | 2.97 | 84 | 1011.4 |
| 20260505172000 | 17 | 237 | 3.2 | 12.9 | 0.00 | 2.97 | 2.97 | 84 | 1011.4 |
| 20260505171000 | 17 | 231 | 4.8 | 4.8 | 0.00 | 2.97 | 2.97 | 83 | 1011.4 |
| 20260505170001 | 17 | 241 | 3.2 | 8.0 | 0.00 | 2.97 | 2.97 | 82 | 1011.4 |
| 20260505165004 | 17 | 236 | 1.6 | 4.8 | 0.00 | 2.97 | 2.97 | 80 | 1011.4 |
| 20260505164004 | 17 | 243 | 3.2 | 8.0 | 0.00 | 2.97 | 2.97 | 80 | 1011.4 |
| 20260505163008 | 17 | 244 | 0.0 | 8.0 | 0.00 | 2.97 | 2.97 | 79 | 1011.4 |
| 20260505162000 | 17 | 235 | 0.0 | 9.7 | 0.00 | 2.97 | 2.97 | 79 | 1011.4 |
| 20260505152002 | 17 | 228 | 3.2 | 9.7 | 0.00 | 2.97 | 2.97 | 80 | 1011.8 |
| 20260505124001 | 16 | 0 | 0.0 | 0.0 | 0.00 | 2.97 | 2.97 | 80 | 1012.0 |
| 20260505123002 | 16 | 0 | 0.0 | 0.0 | 0.00 | 2.97 | 2.97 | 79 | 1012.0 |
| 20260505122004 | 17 | 0 | 3.2 | 0.0 | 0.00 | 2.97 | 2.97 | 79 | 1012.0 |
| 20260505121000 | 17 | 0 | 0.0 | 0.0 | 0.00 | 2.97 | 2.97 | 79 | 1012.0 |
| 20260505115004 | 16 | 223 | 0.0 | 1.6 | 0.00 | 2.97 | 2.97 | 80 | 1012.1 |
| 20260505114001 | 16 | 340 | 0.0 | 9.7 | 0.00 | 2.97 | 2.97 | 80 | 1012.1 |
| 20260505113001 | 16 | 150 | 0.0 | 4.8 | 0.00 | 2.97 | 2.97 | 79 | 1012.2 |
| 20260505112001 | 16 | 255 | 0.0 | 3.2 | 0.00 | 2.97 | 2.97 | 80 | 1012.2 |
| 20260505101001 | 13 | 76 | 1.6 | 9.7 | 0.05 | 2.97 | 2.97 | 88 | 1012.4 |
| 20260505100000 | 13 | 75 | 4.8 | 12.9 | 0.05 | 2.97 | 2.97 | 88 | 1012.5 |
| 20260505095001 | 13 | 52 | 1.6 | 12.9 | 0.05 | 2.97 | 2.97 | 87 | 1012.5 |
| 20260505092004 | 14 | 1 | 4.8 | 14.5 | 0.00 | 2.92 | 2.92 | 84 | 1012.1 |
| 20260505091001 | 14 | 126 | 1.6 | 6.4 | 0.00 | 2.92 | 2.92 | 83 | 1012.2 |
| 20260505090001 | 14 | 0 | 1.6 | 0.0 | 0.00 | 2.92 | 2.92 | 83 | 1012.2 |
| 20260505085001 | 15 | 337 | 3.2 | 12.9 | 0.00 | 2.92 | 2.92 | 84 | 1012.0 |
| 20260505084002 | 15 | 337 | 4.8 | 9.7 | 0.00 | 2.92 | 2.92 | 83 | 1011.9 |
| 20260505083005 | 15 | 29 | 4.8 | 12.9 | 0.00 | 2.92 | 2.92 | 84 | 1011.8 |
| 20260505082003 | 14 | 104 | 4.8 | 4.8 | 0.00 | 2.92 | 2.92 | 86 | 1011.9 |
| 20260505080017 | 13 | 36 | 4.8 | 19.3 | 0.00 | 2.92 | 2.92 | 94 | 1011.5 |
| 20260505075000 | 13 | 13 | 3.2 | 12.9 | 0.00 | 2.92 | 2.92 | 94 | 1011.7 |
| 20260505074001 | 12 | 330 | 3.2 | 17.7 | 0.00 | 2.92 | 2.92 | 94 | 1011.8 |
| 20260505072008 | 12 | 1 | 4.8 | 12.9 | 0.05 | 2.92 | 2.92 | 94 | 1011.9 |
| 20260505064001 | 12 | 81 | 0.0 | 3.2 | 0.53 | 2.92 | 2.92 | 94 | 1011.7 |
| 20260505063002 | 12 | 44 | 4.8 | 14.5 | 0.66 | 2.90 | 2.90 | 94 | 1011.3 |
| 20260505062004 | 12 | 48 | 1.6 | 8.0 | 0.79 | 2.87 | 2.87 | 94 | 1011.5 |
| 20260505061001 | 12 | 88 | 0.0 | 3.2 | 0.74 | 2.74 | 2.74 | 94 | 1011.3 |